Location: Newark
(21.1200°N, 73.4000°E)
Time: 18:28:56
(UTC+00:00)

A-11 Canister half - All Passes

Search period start: 27 January 2020 00:00
Search period end: 06 February 2020 00:00
Orbit: 1525 x 1684 km, 47.3° (Epoch: 26 January)

Date Brightness Start Highest point End Pass type
(mag) Time Alt. Az. Time Alt. Az. Time Alt. Az.
27 Jan - 09:27:37 10° SSW 09:36:23 47° SE 09:45:09 10° ENE daylight
27 Jan - 11:32:34 10° WSW 11:41:18 44° NW 11:50:10 10° NNE daylight
27 Jan - 13:43:33 10° NW 13:48:41 15° NNW 13:53:52 10° NNE visible
27 Jan - 15:53:35 10° NNW 15:58:10 14° NNE 16:02:48 10° NE visible
27 Jan - 17:57:23 10° NNW 18:06:09 36° NE 18:15:07 10° E night (unlit)
27 Jan - 20:01:51 10° NW 20:11:36 66° SW 20:21:35 10° SSE night (unlit)
27 Jan - 22:13:05 10° WSW 22:15:58 11° SW 22:18:54 10° SW visible
28 Jan - 09:06:08 10° SSW 09:14:47 44° SE 09:23:25 10° ENE daylight
28 Jan - 11:10:49 10° WSW 11:19:38 47° NW 11:28:34 10° NNE daylight
28 Jan - 13:21:34 10° NW 13:26:52 16° NNW 13:32:15 10° NNE visible
28 Jan - 15:31:57 10° NNW 15:36:19 14° N 15:40:44 10° NE visible
28 Jan - 17:35:48 10° NNW 17:44:25 35° NE 17:53:14 10° E visible
28 Jan - 19:40:11 10° NW 19:49:57 70° SW 19:59:59 10° SSE night (unlit)
28 Jan - 21:50:24 10° W 21:54:20 13° SW 21:58:19 10° SSW night (unlit)
29 Jan - 08:44:39 10° SSW 08:53:12 41° SE 09:01:41 10° ENE daylight
29 Jan - 10:49:03 10° WSW 10:57:58 50° NW 11:06:58 10° NE daylight
29 Jan - 12:59:35 10° NW 13:05:04 17° NNW 13:10:38 10° NNE daylight
29 Jan - 15:10:20 10° NNW 15:14:29 13° N 15:18:40 10° NE visible
29 Jan - 17:14:14 10° NNW 17:22:41 33° NE 17:31:20 10° E visible
29 Jan - 19:18:31 10° NW 19:28:18 74° SW 19:38:21 10° SE night (unlit)
29 Jan - 21:28:00 10° W 21:32:43 14° SW 21:37:28 10° SSW night (unlit)
30 Jan - 08:23:12 10° SSW 08:31:36 38° SE 08:39:56 10° ENE daylight
30 Jan - 10:27:19 10° WSW 10:36:18 53° NW 10:45:22 10° NE daylight
30 Jan - 12:37:36 10° WNW 12:43:16 17° NNW 12:49:01 10° NNE daylight
30 Jan - 14:48:41 10° NNW 14:52:38 13° N 14:56:37 10° NNE visible
30 Jan - 16:52:40 10° NNW 17:00:57 31° NNE 17:09:25 10° E visible
30 Jan - 18:56:51 10° NW 19:06:39 78° SW 19:16:43 10° SE night (unlit)
30 Jan - 21:05:44 10° W 21:11:04 16° SW 21:16:28 10° SSW night (unlit)
31 Jan - 08:01:45 10° S 08:10:00 36° SE 08:18:10 10° ENE daylight
31 Jan - 10:05:35 10° WSW 10:14:39 56° NW 10:23:46 10° NE daylight
31 Jan - 12:15:37 10° WNW 12:21:29 18° NNW 12:27:26 10° NNE daylight
31 Jan - 14:27:02 10° NNW 14:30:47 13° N 14:34:34 10° NNE visible
31 Jan - 16:31:06 10° NNW 16:39:13 30° NNE 16:47:30 10° E visible
31 Jan - 18:35:12 10° NW 18:44:59 83° SW 18:55:04 10° SE night (unlit)
31 Jan - 20:43:36 10° W 20:49:26 17° SW 20:55:23 10° SSW night (unlit)
01 Feb - 07:40:20 10° S 07:48:24 33° SE 07:56:23 10° ENE daylight
01 Feb - 09:43:51 10° WSW 09:53:00 59° NW 10:02:10 10° NE daylight
01 Feb - 11:53:39 10° WNW 11:59:42 19° NNW 12:05:49 10° NNE daylight
01 Feb - 14:05:22 10° NNW 14:08:56 12° N 14:12:33 10° NNE visible
01 Feb - 16:09:32 10° NNW 16:17:28 28° NNE 16:25:34 10° E visible
01 Feb - 18:13:34 10° NW 18:23:20 87° SW 18:33:25 10° SE night (unlit)
01 Feb - 20:21:31 10° W 20:27:48 19° SW 20:34:12 10° SSW night (unlit)
02 Feb - 07:18:56 10° S 07:26:48 31° SE 07:34:34 10° ENE daylight
02 Feb - 09:22:09 10° WSW 09:31:21 63° NW 09:40:34 10° NE daylight
02 Feb - 11:31:41 10° WNW 11:37:56 19° NNW 11:44:14 10° NNE daylight
02 Feb - 13:43:40 10° NNW 13:47:05 12° N 13:50:32 10° NNE visible
02 Feb - 15:47:59 10° NNW 15:55:43 27° NNE 16:03:37 10° E visible
02 Feb - 17:51:55 10° NW 18:01:41 89° NE 18:11:45 10° SE visible
02 Feb - 19:59:29 10° W 20:06:10 20° SW 20:12:59 10° S night (unlit)
03 Feb - 06:57:33 10° S 07:05:12 29° SE 07:12:46 10° ENE daylight
03 Feb - 09:00:27 10° SW 09:09:42 67° NW 09:18:57 10° NE daylight
03 Feb - 11:09:43 10° WNW 11:16:09 20° NNW 11:22:39 10° NNE daylight
03 Feb - 13:21:57 10° NNW 13:25:14 12° N 13:28:34 10° NNE visible
03 Feb - 15:26:25 10° NNW 15:33:57 25° NNE 15:41:39 10° E visible
03 Feb - 17:30:18 10° NW 17:40:01 84° NE 17:50:03 10° SE visible
03 Feb - 19:37:32 10° W 19:44:32 22° SW 19:51:43 10° S night (unlit)
04 Feb - 06:36:11 10° S 06:43:37 26° SE 06:50:55 10° ENE daylight
04 Feb - 08:38:46 10° SW 08:48:04 71° NW 08:57:20 10° NE daylight
04 Feb - 10:47:46 10° WNW 10:54:23 21° NNW 11:01:04 10° NNE daylight
04 Feb - 13:00:11 10° NNW 13:03:23 12° N 13:06:37 10° NNE daylight
04 Feb - 15:04:52 10° NNW 15:12:13 24° NNE 15:19:41 10° E visible
04 Feb - 17:08:41 10° NW 17:18:22 80° NE 17:28:22 10° SE visible
04 Feb - 19:15:36 10° WNW 19:22:54 24° SW 19:30:25 10° S night (unlit)
05 Feb - 06:14:51 10° S 06:22:01 24° SE 06:29:03 10° ENE daylight
05 Feb - 08:17:04 10° SW 08:26:26 75° NW 08:35:44 10° NE daylight
05 Feb - 10:25:50 10° WNW 10:32:38 22° NNW 10:39:29 10° NNE daylight
05 Feb - 12:38:25 10° NNW 12:41:32 12° N 12:44:41 10° NNE daylight
05 Feb - 14:43:18 10° NNW 14:50:27 23° NNE 14:57:42 10° ENE visible
05 Feb - 16:47:03 10° NW 16:56:42 76° NE 17:06:39 10° SE visible
05 Feb - 18:53:42 10° WNW 19:01:16 26° SW 19:09:04 10° S night (unlit)
